EW4702 Weather Reports


time (UTC)temp
F
wind
direction
speed
knots
gust
knots
rain 1hr
in
rain 24hr
in
rain mn
in
humidity
%
barometer
mb
20260505051542 53 9 0.0 0.0 0.00 0.00 0.00 82 1013.1
20260505041544 54 9 0.0 0.9 0.00 0.00 0.00 76 1013.0
20260505040038 54 9 0.0 0.9 0.00 0.00 0.00 75 1013.1
20260505034537 55 71 0.0 1.7 0.00 0.00 0.00 75 1013.2
20260505033036 55 15 0.0 1.7 0.00 0.00 0.00 73 1013.3
20260505031534 56 15 0.0 0.9 0.00 0.00 0.00 72 1013.3
20260505030034 57 18 0.0 1.7 0.00 0.00 0.00 71 1013.4
20260505024541 57 24 0.0 1.7 0.00 0.00 0.00 69 1013.4
20260505023031 58 21 0.9 1.7 0.00 0.00 0.00 69 1013.4
20260505021538 59 25 0.0 0.9 0.00 0.00 0.00 67 1013.3
20260505020032 59 26 0.0 0.9 0.00 0.00 0.00 65 1013.0
20260505014533 60 26 0.0 0.9 0.00 0.00 0.00 63 1012.9
20260505013030 61 26 0.0 0.9 0.00 0.00 0.00 61 1012.7
20260505011527 62 25 0.0 0.9 0.00 0.00 0.00 60 1012.6
20260505010027 63 20 0.0 1.7 0.00 0.00 0.00 58 1012.5
20260505004525 64 28 0.0 1.7 0.00 0.00 0.00 57 1012.3
20260505003024 65 28 0.0 0.9 0.00 0.00 0.00 54 1012.1
20260505001524 66 28 0.0 0.0 0.00 0.00 0.00 52 1012.1
20260505000031 67 28 0.0 0.9 0.00 0.00 0.00 50 1012.0
20260504234646 69 28 0.0 1.7 0.00 0.00 0.00 47 1011.9
20260504233052 70 37 0.0 1.7 0.00 0.00 0.00 46 1011.9
20260504231601 72 350 0.0 3.5 0.00 0.00 0.00 43 1011.8
20260504230050 73 306 0.9 7.8 0.00 0.00 0.00 40 1011.8
20260504224549 74 304 3.5 8.7 0.00 0.00 0.00 40 1011.7
20260504223049 74 138 3.5 13.0 0.00 0.00 0.00 40 1011.8
20260504221557 74 267 7.0 11.3 0.00 0.00 0.00 40 1011.7
20260504220046 75 282 4.3 12.2 0.00 0.00 0.00 40 1011.7
20260504214546 76 263 6.1 11.3 0.00 0.00 0.00 38 1011.7
20260504213044 76 286 0.9 8.7 0.00 0.00 0.00 38 1011.6
20260504211550 76 286 1.7 7.8 0.00 0.00 0.00 37 1011.6
20260504210100 76 312 1.7 7.8 0.00 0.00 0.00 37 1011.6
20260504204547 77 20 3.5 9.6 0.00 0.00 0.00 37 1011.7
20260504203042 76 263 0.9 9.6 0.00 0.00 0.00 37 1011.9
20260504201535 76 312 3.5 7.0 0.00 0.00 0.00 41 1012.1
20260504200002 75 281 0.9 8.7 0.00 0.00 0.00 38 1012.4
20260504194610 74 277 3.5 8.7 0.00 0.00 0.00 38 1012.5
20260504193054 74 336 3.5 8.7 0.00 0.00 0.00 39 1012.6
20260504191551 74 257 4.3 10.4 0.00 0.00 0.00 37 1012.9
20260504190112 73 267 5.2 10.4 0.00 0.00 0.00 39 1013.1
20260504184555 73 304 3.5 7.8 0.00 0.00 0.00 39 1013.3
20260504183039 72 281 5.2 10.4 0.00 0.00 0.00 37 1013.4
20260504181544 72 232 2.6 7.0 0.00 0.00 0.00 41 1013.6
20260504180057 72 229 4.3 13.0 0.00 0.00 0.00 44 1013.9
20260504174533 71 264 2.6 7.0 0.00 0.00 0.00 45 1014.0
20260504173003 71 291 0.9 7.8 0.00 0.00 0.00 43 1014.0
20260504171602 71 259 0.0 7.8 0.00 0.00 0.00 44 1014.1
20260504081539 42 355 0.0 1.7 0.00 0.00 0.00 91 1015.7